Time,TemperatureF,DewpointF,PressureIn,WindDirection,WindDirectionDegrees,WindSpeedMPH,WindSpeedGustMPH,Humidity,HourlyPrecipIn,Conditions,Clouds,dailyrainin,SolarRadiationWatts/m^2,SoftwareType,DateUTC
2013-05-27 00:03:00,50.0,47.0,-100.00,SSE,161,0.0,0.0,91,0.00,,,0.00,0.000000,,2013-05-27 04:03:00,
2013-05-27 00:12:00,50.0,47.0,-100.00,SSE,161,0.0,0.0,91,0.00,,,0.00,0.000000,,2013-05-27 04:12:00,
2013-05-27 00:33:00,49.0,48.0,-100.00,SE,137,0.0,0.0,95,0.00,,,0.00,0.000000,,2013-05-27 04:33:00,
2013-05-27 00:43:00,49.0,48.0,-100.00,SE,137,0.0,0.0,95,0.00,,,0.00,0.000000,,2013-05-27 04:43:00,
2013-05-27 00:53:00,49.0,48.0,-100.00,SE,137,0.0,0.0,95,0.00,,,0.00,0.000000,,2013-05-27 04:53:00,
2013-05-27 01:02:00,49.0,48.0,-100.00,SE,137,0.0,0.0,95,0.00,,,0.00,0.000000,,2013-05-27 05:02:00,
2013-05-27 01:12:00,49.0,48.0,-100.00,SE,137,0.0,0.0,95,0.00,,,0.00,0.000000,,2013-05-27 05:12:00,
2013-05-27 01:32:00,47.0,47.0,-100.00,SE,129,0.0,0.0,99,0.00,,,0.00,0.000000,,2013-05-27 05:32:00,
2013-05-27 01:42:00,47.0,47.0,-100.00,SE,129,0.0,0.0,99,0.00,,,0.00,0.000000,,2013-05-27 05:42:00,
2013-05-27 01:52:00,47.0,47.0,-100.00,SE,129,0.0,0.0,99,0.00,,,0.00,0.000000,,2013-05-27 05:52:00,
2013-05-27 02:02:00,47.0,47.0,-100.00,SE,129,0.0,0.0,99,0.00,,,0.00,0.000000,,2013-05-27 06:02:00,
2013-05-27 02:11:00,47.0,47.0,-100.00,SE,129,0.0,0.0,99,0.00,,,0.00,0.000000,,2013-05-27 06:11:00,
2013-05-27 02:32:00,47.0,47.0,-100.00,SSE,155,0.0,0.0,100,0.00,,,0.00,0.000000,,2013-05-27 06:32:00,
2013-05-27 02:42:00,47.0,47.0,-100.00,SSE,155,0.0,0.0,100,0.00,,,0.00,0.000000,,2013-05-27 06:42:00,
2013-05-27 02:52:00,47.0,47.0,-100.00,SSE,155,0.0,0.0,100,0.00,,,0.00,0.000000,,2013-05-27 06:52:00,
2013-05-27 03:02:00,47.0,47.0,-100.00,SSE,155,0.0,0.0,100,0.00,,,0.00,0.000000,,2013-05-27 07:02:00,
2013-05-27 03:11:00,47.0,47.0,-100.00,SSE,155,0.0,0.0,100,0.00,,,0.00,0.000000,,2013-05-27 07:11:00,
2013-05-27 03:32:00,46.0,46.0,-100.00,SE,125,0.0,0.0,100,0.00,,,0.00,0.000000,,2013-05-27 07:32:00,
2013-05-27 03:42:00,46.0,46.0,-100.00,SE,125,0.0,0.0,100,0.00,,,0.00,0.000000,,2013-05-27 07:42:00,
2013-05-27 03:53:00,46.0,46.0,-100.00,SE,125,0.0,0.0,100,0.00,,,0.00,0.000000,,2013-05-27 07:53:00,
2013-05-27 04:02:00,46.0,46.0,-100.00,SE,125,0.0,0.0,100,0.00,,,0.00,0.000000,,2013-05-27 08:02:00,
2013-05-27 04:11:00,46.0,46.0,-100.00,SE,125,0.0,0.0,100,0.00,,,0.00,0.000000,,2013-05-27 08:11:00,
2013-05-27 04:33:00,45.0,45.0,-100.00,SE,132,0.0,0.0,100,0.00,,,0.00,0.000000,,2013-05-27 08:33:00,
2013-05-27 04:42:00,45.0,45.0,-100.00,SE,132,0.0,0.0,100,0.00,,,0.00,0.000000,,2013-05-27 08:42:00,
2013-05-27 04:52:00,45.0,45.0,-100.00,SE,132,0.0,0.0,100,0.00,,,0.00,0.000000,,2013-05-27 08:52:00,
2013-05-27 05:02:00,45.0,45.0,-100.00,SE,132,0.0,0.0,100,0.00,,,0.00,0.000000,,2013-05-27 09:02:00,
2013-05-27 05:11:00,45.0,45.0,-100.00,SE,132,0.0,0.0,100,0.00,,,0.00,0.000000,,2013-05-27 09:11:00,
2013-05-27 05:33:00,45.0,45.0,-100.00,SE,133,0.0,0.0,100,0.00,,,0.00,0.000000,,2013-05-27 09:33:00,
2013-05-27 05:42:00,45.0,45.0,-100.00,SE,133,0.0,0.0,100,0.00,,,0.00,0.000000,,2013-05-27 09:42:00,
2013-05-27 05:53:00,45.0,45.0,-100.00,SE,133,0.0,0.0,100,0.00,,,0.00,0.000000,,2013-05-27 09:53:00,
2013-05-27 06:03:00,45.0,45.0,-100.00,SE,133,0.0,0.0,100,0.00,,,0.00,0.000000,,2013-05-27 10:03:00,
2013-05-27 06:12:00,45.0,45.0,-100.00,SE,133,0.0,0.0,100,0.00,,,0.00,0.000000,,2013-05-27 10:12:00,
2013-05-27 06:32:00,46.0,46.0,-100.00,SE,126,0.0,0.0,100,0.00,,,0.00,0.000000,,2013-05-27 10:32:00,
2013-05-27 06:42:00,46.0,46.0,-100.00,SE,126,0.0,0.0,100,0.00,,,0.00,0.000000,,2013-05-27 10:42:00,
2013-05-27 06:53:00,46.0,46.0,-100.00,SE,126,0.0,0.0,100,0.00,,,0.00,0.000000,,2013-05-27 10:53:00,
2013-05-27 07:02:00,46.0,46.0,-100.00,SE,126,0.0,0.0,100,0.00,,,0.00,0.000000,,2013-05-27 11:02:00,
2013-05-27 07:11:00,46.0,46.0,-100.00,SE,126,0.0,0.0,100,0.00,,,0.00,0.000000,,2013-05-27 11:11:00,
2013-05-27 07:32:00,48.0,48.0,-100.00,NE,54,0.0,0.0,100,0.00,,,0.00,8.000000,,2013-05-27 11:32:00,
2013-05-27 07:42:00,48.0,48.0,-100.00,NE,54,0.0,0.0,100,0.00,,,0.00,8.000000,,2013-05-27 11:42:00,
2013-05-27 07:52:00,48.0,48.0,-100.00,NE,54,0.0,0.0,100,0.00,,,0.00,8.000000,,2013-05-27 11:52:00,
2013-05-27 08:02:00,48.0,48.0,-100.00,NE,54,0.0,0.0,100,0.00,,,0.00,8.000000,,2013-05-27 12:02:00,
2013-05-27 08:11:00,48.0,48.0,-100.00,NE,54,0.0,0.0,100,0.00,,,0.00,8.000000,,2013-05-27 12:11:00,
2013-05-27 08:32:00,50.0,49.0,-100.00,West,274,0.0,0.0,97,0.00,,,0.00,44.000000,,2013-05-27 12:32:00,
2013-05-27 08:42:00,50.0,49.0,-100.00,West,274,0.0,0.0,97,0.00,,,0.00,44.000000,,2013-05-27 12:42:00,
2013-05-27 08:52:00,50.0,49.0,-100.00,West,274,0.0,0.0,97,0.00,,,0.00,44.000000,,2013-05-27 12:52:00,
2013-05-27 09:02:00,50.0,49.0,-100.00,West,274,0.0,0.0,97,0.00,,,0.00,44.000000,,2013-05-27 13:02:00,
2013-05-27 09:11:00,50.0,49.0,-100.00,West,274,0.0,0.0,97,0.00,,,0.00,44.000000,,2013-05-27 13:11:00,
2013-05-27 09:42:00,55.0,50.0,-100.00,NW,313,0.0,0.0,82,0.00,,,0.00,149.000000,,2013-05-27 13:42:00,
2013-05-27 09:53:00,55.0,50.0,-100.00,NW,313,0.0,0.0,82,0.00,,,0.00,149.000000,,2013-05-27 13:53:00,
2013-05-27 10:02:00,55.0,50.0,-100.00,NW,313,0.0,0.0,82,0.00,,,0.00,149.000000,,2013-05-27 14:02:00,
2013-05-27 10:11:00,55.0,50.0,-100.00,NW,313,0.0,0.0,82,0.00,,,0.00,149.000000,,2013-05-27 14:11:00,
2013-05-27 10:42:00,62.0,54.0,-100.00,SSE,147,0.0,5.0,76,0.00,,,0.00,500.000000,,2013-05-27 14:42:00,
2013-05-27 10:52:00,62.0,54.0,-100.00,SSE,147,0.0,5.0,76,0.00,,,0.00,500.000000,,2013-05-27 14:52:00,
2013-05-27 11:02:00,62.0,54.0,-100.00,SSE,147,0.0,5.0,76,0.00,,,0.00,500.000000,,2013-05-27 15:02:00,
2013-05-27 11:11:00,62.0,54.0,-100.00,SSE,147,0.0,5.0,76,0.00,,,0.00,500.000000,,2013-05-27 15:11:00,
2013-05-27 11:33:00,74.0,59.0,-100.00,NNE,28,2.0,6.0,60,0.00,,,0.00,664.000000,,2013-05-27 15:33:00,
2013-05-27 11:43:00,74.0,59.0,-100.00,NNE,28,2.0,6.0,60,0.00,,,0.00,664.000000,,2013-05-27 15:43:00,
2013-05-27 11:53:00,74.0,59.0,-100.00,NNE,28,2.0,6.0,60,0.00,,,0.00,664.000000,,2013-05-27 15:53:00,
2013-05-27 12:03:00,74.0,59.0,-100.00,NNE,28,2.0,6.0,60,0.00,,,0.00,664.000000,,2013-05-27 16:03:00,
2013-05-27 12:12:00,74.0,59.0,-100.00,NNE,28,2.0,6.0,60,0.00,,,0.00,664.000000,,2013-05-27 16:12:00,
2013-05-27 12:33:00,76.0,54.0,-100.00,West,281,5.0,8.0,47,0.00,,,0.00,732.000000,,2013-05-27 16:33:00,
2013-05-27 12:42:00,76.0,54.0,-100.00,West,281,5.0,8.0,47,0.00,,,0.00,732.000000,,2013-05-27 16:42:00,
2013-05-27 12:53:00,76.0,54.0,-100.00,West,281,5.0,8.0,47,0.00,,,0.00,732.000000,,2013-05-27 16:53:00,
2013-05-27 13:02:00,76.0,54.0,-100.00,West,281,5.0,8.0,47,0.00,,,0.00,732.000000,,2013-05-27 17:02:00,
2013-05-27 13:12:00,76.0,54.0,-100.00,West,281,5.0,8.0,47,0.00,,,0.00,732.000000,,2013-05-27 17:12:00,
2013-05-27 13:32:00,76.0,54.0,-100.00,WNW,294,6.0,14.0,47,0.00,,,0.00,484.000000,,2013-05-27 17:32:00,
2013-05-27 13:43:00,76.0,54.0,-100.00,WNW,294,6.0,14.0,47,0.00,,,0.00,484.000000,,2013-05-27 17:43:00,
2013-05-27 13:52:00,76.0,54.0,-100.00,WNW,294,6.0,14.0,47,0.00,,,0.00,484.000000,,2013-05-27 17:52:00,
2013-05-27 14:02:00,76.0,54.0,-100.00,WNW,294,6.0,14.0,47,0.00,,,0.00,484.000000,,2013-05-27 18:02:00,
2013-05-27 14:11:00,76.0,54.0,-100.00,WNW,294,6.0,14.0,47,0.00,,,0.00,484.000000,,2013-05-27 18:11:00,
2013-05-27 14:32:00,79.0,59.0,-100.00,WNW,289,4.0,10.0,51,0.00,,,0.00,515.000000,,2013-05-27 18:32:00,
2013-05-27 14:42:00,79.0,59.0,-100.00,WNW,289,4.0,10.0,51,0.00,,,0.00,515.000000,,2013-05-27 18:42:00,
2013-05-27 14:52:00,79.0,59.0,-100.00,WNW,289,4.0,10.0,51,0.00,,,0.00,515.000000,,2013-05-27 18:52:00,
2013-05-27 15:01:00,79.0,59.0,-100.00,WNW,289,4.0,10.0,51,0.00,,,0.00,515.000000,,2013-05-27 19:01:00,
2013-05-27 15:11:00,79.0,59.0,-100.00,WNW,289,4.0,10.0,51,0.00,,,0.00,515.000000,,2013-05-27 19:11:00,
2013-05-27 15:32:00,80.0,55.0,-100.00,WNW,302,5.0,13.0,43,0.00,,,0.00,591.000000,,2013-05-27 19:32:00,
2013-05-27 15:42:00,80.0,55.0,-100.00,WNW,302,5.0,13.0,43,0.00,,,0.00,591.000000,,2013-05-27 19:42:00,
2013-05-27 15:52:00,80.0,55.0,-100.00,WNW,302,5.0,13.0,43,0.00,,,0.00,591.000000,,2013-05-27 19:52:00,
2013-05-27 16:02:00,80.0,55.0,-100.00,WNW,302,5.0,13.0,43,0.00,,,0.00,591.000000,,2013-05-27 20:02:00,
2013-05-27 16:11:00,80.0,55.0,-100.00,WNW,302,5.0,13.0,43,0.00,,,0.00,591.000000,,2013-05-27 20:11:00,
2013-05-27 16:32:00,81.0,53.0,-100.00,WNW,295,8.0,15.0,38,0.00,,,0.00,777.000000,,2013-05-27 20:32:00,
2013-05-27 16:42:00,81.0,53.0,-100.00,WNW,295,8.0,15.0,38,0.00,,,0.00,777.000000,,2013-05-27 20:42:00,
2013-05-27 16:53:00,81.0,53.0,-100.00,WNW,295,8.0,15.0,38,0.00,,,0.00,777.000000,,2013-05-27 20:53:00,
2013-05-27 17:01:00,81.0,53.0,-100.00,WNW,295,8.0,15.0,38,0.00,,,0.00,777.000000,,2013-05-27 21:01:00,
2013-05-27 17:12:00,81.0,53.0,-100.00,WNW,295,8.0,15.0,38,0.00,,,0.00,777.000000,,2013-05-27 21:12:00,
2013-05-27 17:33:00,81.0,54.0,-100.00,West,279,4.0,15.0,40,0.00,,,0.00,471.000000,,2013-05-27 21:33:00,
2013-05-27 17:43:00,81.0,54.0,-100.00,West,279,4.0,15.0,40,0.00,,,0.00,471.000000,,2013-05-27 21:43:00,
2013-05-27 17:53:00,81.0,54.0,-100.00,West,279,4.0,15.0,40,0.00,,,0.00,471.000000,,2013-05-27 21:53:00,
2013-05-27 18:03:00,81.0,54.0,-100.00,West,279,4.0,15.0,40,0.00,,,0.00,471.000000,,2013-05-27 22:03:00,
2013-05-27 18:13:00,81.0,54.0,-100.00,West,279,4.0,15.0,40,0.00,,,0.00,471.000000,,2013-05-27 22:13:00,
2013-05-27 18:33:00,81.0,55.0,-100.00,WNW,292,5.0,13.0,41,0.00,,,0.00,398.000000,,2013-05-27 22:33:00,
2013-05-27 18:42:00,81.0,55.0,-100.00,WNW,292,5.0,13.0,41,0.00,,,0.00,398.000000,,2013-05-27 22:42:00,
2013-05-27 18:53:00,81.0,55.0,-100.00,WNW,292,5.0,13.0,41,0.00,,,0.00,398.000000,,2013-05-27 22:53:00,
2013-05-27 19:02:00,81.0,55.0,-100.00,WNW,292,5.0,13.0,41,0.00,,,0.00,398.000000,,2013-05-27 23:02:00,
2013-05-27 19:12:00,81.0,55.0,-100.00,WNW,292,5.0,13.0,41,0.00,,,0.00,398.000000,,2013-05-27 23:12:00,
2013-05-27 19:42:00,76.0,57.0,-100.00,South,182,2.0,7.0,51,0.00,,,0.00,236.000000,,2013-05-27 23:42:00,
2013-05-27 19:52:00,76.0,57.0,-100.00,South,182,2.0,7.0,51,0.00,,,0.00,236.000000,,2013-05-27 23:52:00,
2013-05-27 20:01:00,76.0,57.0,-100.00,South,182,2.0,7.0,51,0.00,,,0.00,236.000000,,2013-05-28 00:01:00,
2013-05-27 20:11:00,76.0,57.0,-100.00,South,182,2.0,7.0,51,0.00,,,0.00,236.000000,,2013-05-28 00:11:00,
2013-05-27 21:32:00,65.0,59.0,-100.00,WSW,238,1.0,4.0,82,-99.99,,,0.00,3.000000,,2013-05-28 01:32:00,
2013-05-27 21:42:00,65.0,59.0,-100.00,WSW,238,1.0,4.0,82,-99.99,,,0.00,3.000000,,2013-05-28 01:42:00,
2013-05-27 21:52:00,65.0,59.0,-100.00,WSW,238,1.0,4.0,82,-99.99,,,0.00,3.000000,,2013-05-28 01:52:00,
2013-05-27 22:02:00,65.0,59.0,-100.00,WSW,238,1.0,4.0,82,-99.99,,,0.00,3.000000,,2013-05-28 02:02:00,
2013-05-27 22:11:00,65.0,59.0,-100.00,WSW,238,1.0,4.0,82,-99.99,,,0.00,3.000000,,2013-05-28 02:11:00,
2013-05-27 22:32:00,63.0,59.0,-100.00,SSW,200,0.0,0.0,87,0.00,,,0.00,0.000000,,2013-05-28 02:32:00,
2013-05-27 22:42:00,63.0,59.0,-100.00,SSW,200,0.0,0.0,87,0.00,,,0.00,0.000000,,2013-05-28 02:42:00,
2013-05-27 22:52:00,63.0,59.0,-100.00,SSW,200,0.0,0.0,87,0.00,,,0.00,0.000000,,2013-05-28 02:52:00,
2013-05-27 23:01:00,63.0,59.0,-100.00,SSW,200,0.0,0.0,87,0.00,,,0.00,0.000000,,2013-05-28 03:01:00,
2013-05-27 23:11:00,63.0,59.0,-100.00,SSW,200,0.0,0.0,87,0.00,,,0.00,0.000000,,2013-05-28 03:11:00,
2013-05-27 23:33:00,61.0,58.0,-100.00,South,191,1.0,4.0,89,0.00,,,0.00,0.000000,,2013-05-28 03:33:00,
2013-05-27 23:43:00,61.0,58.0,-100.00,South,191,1.0,4.0,89,0.00,,,0.00,0.000000,,2013-05-28 03:43:00,
2013-05-27 23:53:00,61.0,58.0,-100.00,South,191,1.0,4.0,89,0.00,,,0.00,0.000000,,2013-05-28 03:53:00,